When you browse on this site, cookies collect data to enhance your experience and personalize the content and advertising you see.
Visit our Privacy Policy to learn more. By continuing to use the site, you agree to this use of cookies and data.
  • In Latvia
  • List of Countries
  • For 7 days
  • Water Temperature
  • Weather Map
  • Weather Widgets
  • user-avatar
    Login

    Hourly Weather Salzburg

    Today, 23 September, Monday

    Time Temperature Precipitation Wind Pressure Humidity
    00:00 +8°C° 0 mm 2 mps 624 mmHg 82%
    01:00 +8°C° 0 mm 2 mps 624 mmHg 81%
    02:00 +9°C° 0 mm 1 mps 624 mmHg 81%
    03:00 +9°C° 0 mm 1 mps 624 mmHg 81%
    04:00 +9°C° 0 mm 1 mps 624 mmHg 81%
    05:00 +9°C° 0.1 mm 1 mps 624 mmHg 83%
    06:00 +9°C° 0.1 mm 1 mps 625 mmHg 85%
    07:00 +9°C° 0.1 mm 1 mps 625 mmHg 88%
    08:00 +9°C° 1.1 mm 1 mps 625 mmHg 91%
    09:00 +9°C° 1.1 mm 1 mps 625 mmHg 94%
    10:00 +9°C° 1.1 mm 1 mps 625 mmHg 97%
    11:00 +7°C° 1.8 mm 2 mps 625 mmHg 97%
    12:00 +7°C° 1.8 mm 2 mps 625 mmHg 97%
    13:00 +7°C° 1.8 mm 2 mps 625 mmHg 98%
    14:00 +6°C° 1 mm 2 mps 625 mmHg 97%
    15:00 +6°C° 1 mm 2 mps 625 mmHg 97%
    16:00 +6°C° 1 mm 1 mps 625 mmHg 97%
    17:00 +6°C° 0.4 mm 1 mps 625 mmHg 97%
    18:00 +6°C° 0.4 mm 1 mps 625 mmHg 97%
    19:00 +6°C° 0.4 mm 1 mps 625 mmHg 97%
    20:00 +6°C° 0.3 mm 1 mps 626 mmHg 97%
    21:00 +6°C° 0.3 mm 1 mps 626 mmHg 97%
    22:00 +6°C° 0.3 mm 1 mps 626 mmHg 98%
    23:00 +6°C° 0.1 mm 1 mps 626 mmHg 97%

    Tomorrow, 24 September, Tuesday

    Time Temperature Precipitation Wind Pressure Humidity
    00:00 +5°C° 0.1 mm 1 mps 626 mmHg 97%
    01:00 +5°C° 0.1 mm 1 mps 626 mmHg 97%
    02:00 +5°C° 0 mm 1 mps 626 mmHg 97%
    03:00 +3°C° 0 mm 0 mps 625 mmHg 97%
    04:00 +3°C° 0 mm 0 mps 625 mmHg 96%
    05:00 +3°C° 0 mm 0 mps 625 mmHg 96%
    06:00 +5°C° 0 mm 1 mps 625 mmHg 96%
    07:00 +5°C° 0 mm 1 mps 625 mmHg 95%
    08:00 +7°C° 0 mm 1 mps 626 mmHg 87%
    09:00 +8°C° 0 mm 0 mps 627 mmHg 79%
    10:00 +10°C° 0 mm 0 mps 627 mmHg 71%
    11:00 +13°C° 0 mm 1 mps 627 mmHg 64%
    12:00 +14°C° 0 mm 1 mps 627 mmHg 57%
    13:00 +16°C° 0 mm 1 mps 627 mmHg 50%
    14:00 +15°C° 0 mm 1 mps 627 mmHg 55%
    15:00 +14°C° 0 mm 1 mps 626 mmHg 59%
    16:00 +14°C° 0 mm 1 mps 626 mmHg 64%
    17:00 +12°C° 0.1 mm 1 mps 625 mmHg 73%
    18:00 +10°C° 0.1 mm 1 mps 624 mmHg 83%
    19:00 +8°C° 0.1 mm 1 mps 624 mmHg 93%
    20:00 +8°C° 0 mm 1 mps 624 mmHg 93%
    21:00 +7°C° 0 mm 0 mps 624 mmHg 93%
    22:00 +6°C° 0 mm 0 mps 624 mmHg 93%
    23:00 +6°C° 0.1 mm 0 mps 624 mmHg 94%

    Day after tomorrow, 25 September, Wednesday

    Time Temperature Precipitation Wind Pressure Humidity
    00:00 +6°C° 0.1 mm 0 mps 624 mmHg 94%
    01:00 +7°C° 0.1 mm 1 mps 624 mmHg 94%
    02:00 +7°C° 0.1 mm 1 mps 624 mmHg 94%
    03:00 +7°C° 0.1 mm 1 mps 623 mmHg 95%
    04:00 +7°C° 0.1 mm 1 mps 623 mmHg 95%
    05:00 +7°C° 0.1 mm 1 mps 623 mmHg 94%
    06:00 +7°C° 0.1 mm 1 mps 623 mmHg 93%
    07:00 +8°C° 0.1 mm 1 mps 623 mmHg 92%
    08:00 +7°C° 1.1 mm 1 mps 623 mmHg 93%
    09:00 +7°C° 1.1 mm 1 mps 623 mmHg 94%
    10:00 +7°C° 1.1 mm 1 mps 624 mmHg 96%
    11:00 +7°C° 1.7 mm 1 mps 623 mmHg 95%
    12:00 +7°C° 1.7 mm 1 mps 623 mmHg 95%
    13:00 +6°C° 1.7 mm 1 mps 623 mmHg 94%
    14:00 +6°C° 0.4 mm 1 mps 623 mmHg 95%
    15:00 +6°C° 0.4 mm 1 mps 623 mmHg 95%
    16:00 +6°C° 0.4 mm 1 mps 623 mmHg 96%
    17:00 +6°C° 0.4 mm 1 mps 623 mmHg 96%
    18:00 +6°C° 0.4 mm 1 mps 624 mmHg 96%
    19:00 +5°C° 0.4 mm 1 mps 624 mmHg 96%
    20:00 +5°C° 0.3 mm 1 mps 624 mmHg 96%
    21:00 +5°C° 0.3 mm 1 mps 624 mmHg 96%
    22:00 +5°C° 0.3 mm 1 mps 624 mmHg 96%
    23:00 +5°C° 0.1 mm 1 mps 624 mmHg 96%

    26 September, Thursday

    Time Temperature Precipitation Wind Pressure Humidity
    00:00 +4°C° 0.1 mm 1 mps 624 mmHg 95%
    01:00 +4°C° 0.1 mm 1 mps 624 mmHg 95%
    02:00 +4°C° 0 mm 1 mps 624 mmHg 94%
    03:00 +4°C° 0 mm 1 mps 625 mmHg 94%
    04:00 +4°C° 0 mm 1 mps 625 mmHg 94%
    05:00 +4°C° 0.1 mm 1 mps 625 mmHg 94%
    06:00 +5°C° 0.1 mm 1 mps 625 mmHg 94%
    07:00 +5°C° 0.1 mm 1 mps 625 mmHg 94%
    08:00 +6°C° 0.1 mm 1 mps 626 mmHg 91%
    09:00 +7°C° 0.1 mm 1 mps 627 mmHg 88%
    10:00 +8°C° 0.1 mm 1 mps 627 mmHg 85%
    11:00 +8°C° 0.1 mm 1 mps 627 mmHg 87%
    12:00 +8°C° 0.1 mm 1 mps 627 mmHg 88%
    13:00 +8°C° 0.1 mm 1 mps 627 mmHg 89%
    14:00 +8°C° 0.2 mm 1 mps 627 mmHg 90%
    15:00 +7°C° 0.2 mm 0 mps 627 mmHg 91%
    16:00 +7°C° 0.2 mm 0 mps 627 mmHg 91%
    17:00 +7°C° 0 mm 0 mps 628 mmHg 92%
    18:00 +7°C° 0 mm 0 mps 628 mmHg 92%
    19:00 +6°C° 0 mm 0 mps 628 mmHg 93%
    20:00 +7°C° 0.1 mm 1 mps 628 mmHg 92%
    21:00 +7°C° 0.1 mm 1 mps 628 mmHg 92%
    22:00 +7°C° 0.1 mm 1 mps 628 mmHg 92%
    23:00 +7°C° 0 mm 1 mps 628 mmHg 92%

    27 September, Friday

    Time Temperature Precipitation Wind Pressure Humidity
    00:00 +7°C° 0 mm 1 mps 628 mmHg 92%
    01:00 +6°C° 0 mm 1 mps 628 mmHg 92%
    02:00 +6°C° 0 mm 1 mps 628 mmHg 91%
    03:00 +6°C° 0 mm 1 mps 628 mmHg 91%
    04:00 +6°C° 0 mm 1 mps 628 mmHg 90%
    05:00 +6°C° 0 mm 1 mps 628 mmHg 90%
    06:00 +6°C° 0 mm 1 mps 627 mmHg 89%
    07:00 +7°C° 0 mm 1 mps 627 mmHg 88%
    08:00 +9°C° 0 mm 1 mps 628 mmHg 81%
    09:00 +11°C° 0 mm 1 mps 629 mmHg 75%
    10:00 +12°C° 0 mm 0 mps 630 mmHg 68%
    11:00 +13°C° 0 mm 0 mps 630 mmHg 63%
    12:00 +16°C° 0 mm 1 mps 630 mmHg 58%
    13:00 +18°C° 0 mm 1 mps 630 mmHg 53%
    14:00 +16°C° 0.1 mm 1 mps 630 mmHg 61%
    15:00 +15°C° 0.1 mm 1 mps 629 mmHg 68%
    16:00 +14°C° 0.1 mm 1 mps 629 mmHg 76%
    17:00 +12°C° 0.8 mm 1 mps 628 mmHg 82%
    18:00 +11°C° 0.8 mm 1 mps 628 mmHg 88%
    19:00 +9°C° 0.8 mm 1 mps 627 mmHg 94%
    20:00 +9°C° 0.7 mm 1 mps 627 mmHg 94%
    21:00 +9°C° 0.7 mm 1 mps 628 mmHg 94%
    22:00 +9°C° 0.7 mm 1 mps 628 mmHg 94%
    23:00 +9°C° 0.3 mm 1 mps 628 mmHg 94%

    28 September, Saturday

    Time Temperature Precipitation Wind Pressure Humidity
    00:00 +7°C° 0.3 mm 0 mps 628 mmHg 94%
    01:00 +7°C° 0.3 mm 0 mps 628 mmHg 95%
    02:00 +7°C° 0.1 mm 0 mps 627 mmHg 95%
    03:00 +7°C° 0.1 mm 0 mps 627 mmHg 95%
    04:00 +7°C° 0.1 mm 0 mps 627 mmHg 94%
    05:00 +7°C° 0.1 mm 0 mps 627 mmHg 94%
    06:00 +7°C° 0.1 mm 0 mps 627 mmHg 94%
    07:00 +7°C° 0.1 mm 0 mps 627 mmHg 94%
    08:00 +7°C° 0.1 mm 0 mps 627 mmHg 93%
    09:00 +9°C° 0.1 mm 1 mps 628 mmHg 93%
    10:00 +9°C° 0.1 mm 1 mps 628 mmHg 92%
    11:00 +9°C° 0.1 mm 1 mps 628 mmHg 91%
    12:00 +10°C° 0.1 mm 1 mps 628 mmHg 89%
    13:00 +10°C° 0.1 mm 1 mps 628 mmHg 87%
    14:00 +9°C° 0.1 mm 1 mps 627 mmHg 88%
    15:00 +9°C° 0.1 mm 1 mps 627 mmHg 89%
    16:00 +9°C° 0.1 mm 1 mps 627 mmHg 90%
    17:00 +8°C° 0 mm 1 mps 627 mmHg 92%
    18:00 +8°C° 0 mm 1 mps 627 mmHg 93%
    19:00 +6°C° 0 mm 0 mps 627 mmHg 94%
    20:00 +6°C° 0 mm 0 mps 627 mmHg 94%
    21:00 +6°C° 0 mm 0 mps 628 mmHg 94%
    22:00 +6°C° 0 mm 0 mps 628 mmHg 94%
    23:00 +6°C° 0 mm 0 mps 627 mmHg 94%
    Show more